Wind_Speed
79 81 83 85 87 90 93 97 101 104 102 101 102 101 101 101 99 97 94 90 87 84 83 81 79 77 76 76 77 79 81 82 83 86 91 93 95 94
81 83 85 88 91 95 98 101 105 108 109 104 102 99 96 94 91 89 86 83 80 78 75 73 72 70 69 68 68 71 75 78 79 80 83 88 92 96
83 87 90 94 97 100 103 104 105 105 106 102 96 91 87 84 81 80 80 77 74 71 69 67 66 65 64 64 64 66 69 73 77 78 78 81 86 92
88 92 96 99 102 103 104 103 101 99 98 96 89 84 80 78 75 72 70 69 67 66 64 63 62 62 62 62 63 63 66 70 74 77 77 77 78 83
94 98 101 103 103 102 99 96 94 92 90 89 84 80 76 72 69 65 63 61 61 61 60 59 60 61 61 61 61 61 62 65 71 75 77 75 74 74
99 102 103 102 99 96 92 89 87 86 84 83 81 76 71 66 63 61 57 54 53 54 54 55 56 56 56 57 57 57 58 60 66 73 76 74 71 68
102 102 100 95 90 87 85 83 83 82 81 80 76 71 65 60 57 55 52 47 44 47 49 47 49 49 49 50 51 51 52 55 61 68 74 74 69 65
102 98 92 86 82 79 79 79 79 80 79 75 70 65 59 56 53 49 46 43 37 38 42 38 40 40 40 41 42 43 45 49 56 64 71 73 68 63
97 90 83 78 77 76 76 76 75 74 71 68 63 58 54 51 47 43 40 37 33 32 33 28 30 31 32 33 34 35 38 42 49 58 67 69 66 61
87 81 77 75 75 77 76 74 71 65 61 58 55 51 48 45 42 39 36 30 25 25 29 25 23 25 26 27 28 29 29 33 40 50 61 66 64 60
79 76 76 76 76 76 74 69 61 55 50 48 46 44 43 42 41 37 32 27 20 19 24 24 20 18 18 20 21 21 20 24 32 43 54 61 61 58
76 74 74 74 72 69 65 58 51 45 42 39 37 37 37 37 36 35 32 26 19 16 20 20 17 15 13 15 15 12 11 15 25 36 47 55 58 56
76 74 71 68 64 58 52 47 43 40 36 33 31 31 32 33 33 33 31 26 19 15 17 16 14 12 10 8 8 5 3 10 19 29 39 48 53 54
75 70 64 59 53 47 43 40 37 34 30 29 29 29 29 29 28 27 25 22 19 15 13 12 10 8 6 4 4 3 5 10 17 24 32 40 46 49
68 62 56 49 43 39 36 33 30 28 27 27 26 25 25 24 22 21 20 19 17 15 12 10 8 5 3 3 4 7 10 13 17 22 27 32 37 42
58 52 46 41 36 33 30 28 26 26 25 23 23 22 21 20 19 18 17 16 15 13 11 9 6 3 3 5 8 11 14 17 19 22 25 28 31 34
51 44 38 33 29 27 24 23 23 22 21 21 21 20 19 19 19 18 17 16 13 11 10 9 7 5 6 9 11 15 19 21 22 24 25 26 30 32
43 37 31 28 24 20 19 19 19 19 19 19 18 18 18 18 18 18 17 16 14 12 10 8 7 7 9 11 15 18 21 22 23 24 24 26 29 30
36 31 26 22 19 17 16 17 17 17 17 17 17 18 18 18 18 18 17 16 15 13 11 9 8 9 11 13 16 20 21 22 23 24 24 25 27 28
29 24 20 17 15 15 15 16 15 16 16 17 17 17 17 17 17 17 16 15 14 13 12 10 9 9 11 14 16 19 22 22 23 23 24 25 26 27
22 19 15 14 14 14 15 15 15 16 17 17 17 17 16 16 15 15 14 13 13 12 11 10 9 9 11 14 16 19 21 23 23 23 23 23 25 26
17 14 13 13 13 14 14 15 16 17 17 18 17 17 16 15 14 13 12 11 10 10 9 9 9 9 11 14 16 18 20 22 23 24 25 24 24 25
13 13 13 13 14 14 16 16 17 18 18 18 18 17 16 15 14 12 11 9 7 6 6 7 8 9 10 12 15 18 20 21 22 24 25 26 26 26
Wind_Direction
306 306 306 306 305 305 305 304 304 303 302 301 300 300 299 298 297 295 293 291 288 286 284 281 278 275 272 269 264 260 256 252 248 245 243 239 234 230
308 308 308 307 307 306 306 305 304 303 303 302 302 301 300 298 297 295 293 291 289 287 285 282 279 276 273 269 265 260 255 251 247 244 242 240 236 231
310 309 309 309 308 307 306 306 305 304 303 303 303 302 300 298 296 295 293 291 289 287 284 282 279 277 273 269 265 261 255 249 245 241 239 239 237 233
311 311 310 309 309 308 307 306 305 304 304 305 305 304 302 300 298 295 292 290 288 286 284 282 279 276 274 271 267 262 257 250 243 238 236 236 236 235
312 312 311 310 309 308 307 306 305 305 306 306 306 306 304 302 299 296 293 290 288 287 285 282 280 277 275 272 268 263 258 251 243 236 232 232 233 234
313 313 312 311 309 308 307 307 306 307 307 307 307 307 306 304 301 298 295 292 290 288 285 284 281 278 276 273 269 264 258 251 241 234 229 227 229 230
314 313 312 311 309 308 308 308 308 309 309 308 309 308 308 305 303 301 299 296 294 290 286 285 283 282 279 276 272 265 258 248 239 231 226 223 224 226
314 313 312 310 309 309 309 309 309 310 309 309 310 310 309 307 305 304 303 302 298 290 288 288 286 285 283 279 274 266 257 246 236 228 222 219 220 221
315 314 312 311 310 310 309 309 309 309 309 309 310 310 309 308 307 308 308 309 306 298 293 293 289 290 288 285 279 269 258 245 234 226 219 216 216 217
316 314 313 313 312 311 310 310 310 310 310 310 311 311 311 311 311 313 315 314 311 304 300 301 297 295 293 289 283 274 260 244 231 221 215 213 213 213
316 315 315 314 313 312 311 311 312 312 312 313 312 312 313 314 315 317 319 322 317 304 301 306 309 305 301 297 291 282 262 240 225 216 212 210 210 211
317 316 316 315 314 313 312 313 314 315 315 315 313 312 313 315 316 318 321 322 320 307 300 307 313 314 312 307 305 295 260 226 213 209 208 208 209 210
319 319 318 316 315 315 314 315 317 319 320 320 318 316 316 316 316 318 320 322 323 316 307 310 314 317 320 318 321 322 233 194 196 200 203 206 208 210
320 320 319 318 318 318 317 318 320 323 325 325 323 322 321 321 322 323 324 325 326 325 319 320 323 323 331 341 6 51 128 159 175 186 195 201 205 207
321 321 321 321 321 320 321 323 326 329 330 329 329 330 332 334 336 337 336 336 335 336 334 330 331 335 3 39 70 100 125 142 157 169 180 188 195 199
321 322 323 323 324 325 327 330 333 335 337 341 343 345 347 349 350 352 351 348 347 348 353 354 357 19 78 96 102 111 124 133 142 152 162 170 177 183
325 326 326 327 328 330 333 336 339 342 346 349 353 356 359 2 4 6 6 6 5 5 6 14 30 64 97 111 114 118 125 129 136 144 153 163 169 174
327 329 331 332 335 338 341 343 346 351 354 358 3 7 9 11 13 15 15 17 19 22 26 36 52 78 101 117 125 128 130 132 136 140 146 157 164 169
331 334 336 339 343 347 350 352 354 358 2 6 8 10 12 15 17 18 20 23 27 31 38 50 68 88 107 119 129 133 135 137 139 143 146 152 159 164
334 339 343 347 352 355 357 358 1 3 3 4 6 8 10 12 15 18 21 25 30 37 45 58 76 97 114 125 132 139 143 145 146 148 150 154 159 163
341 347 353 358 2 3 4 6 5 3 1 1 0 1 1 3 6 11 16 21 28 36 45 58 78 104 122 132 138 144 150 153 155 157 158 160 164 166
351 359 5 9 10 10 11 9 7 4 2 359 357 355 354 355 357 0 6 14 24 35 46 59 78 105 129 141 145 149 155 160 163 166 168 169 170 173
4 10 14 17 17 17 14 11 8 4 0 358 356 354 353 353 355 357 359 4 13 31 53 72 89 106 128 147 157 160 163 167 171 174 177 178 178 179
Height
5595 5585 5575 5564 5553 5540 5527 5513 5499 5492 5494 5487 5473 5459 5443 5427 5413 5400 5391 5384 5377 5371 5365 5360 5357 5355 5354 5354 5356 5359 5363 5370 5378 5387 5397 5409 5424 5437
5576 5566 5555 5543 5531 5517 5503 5488 5471 5455 5450 5452 5440 5429 5414 5398 5384 5370 5360 5353 5347 5341 5336 5332 5329 5327 5327 5327 5328 5330 5334 5340 5348 5358 5368 5379 5392 5406
5557 5545 5533 5519 5506 5492 5477 5461 5445 5426 5411 5412 5407 5397 5385 5372 5361 5348 5335 5326 5321 5315 5310 5306 5303 5301 5300 5301 5302 5303 5306 5311 5320 5331 5341 5352 5364 5378
5536 5523 5509 5494 5480 5464 5448 5432 5417 5401 5384 5374 5375 5366 5357 5345 5335 5325 5315 5305 5298 5293 5287 5283 5279 5277 5276 5275 5276 5278 5281 5285 5293 5303 5316 5329 5341 5352
5513 5499 5484 5467 5452 5436 5420 5405 5390 5377 5363 5349 5344 5338 5329 5319 5308 5301 5293 5285 5278 5271 5265 5261 5257 5253 5252 5251 5251 5253 5255 5260 5268 5278 5291 5305 5318 5331
5490 5474 5457 5439 5423 5408 5394 5381 5367 5355 5343 5330 5321 5313 5305 5296 5285 5277 5273 5268 5260 5251 5245 5240 5235 5232 5230 5228 5227 5228 5231 5235 5242 5253 5268 5283 5298 5312
5466 5449 5431 5414 5398 5384 5370 5358 5346 5333 5321 5310 5300 5291 5283 5274 5266 5258 5252 5249 5244 5233 5226 5224 5217 5214 5211 5207 5206 5206 5208 5212 5219 5230 5246 5263 5280 5295
5442 5426 5409 5393 5379 5366 5353 5340 5327 5313 5300 5289 5281 5272 5265 5256 5249 5242 5235 5231 5228 5221 5210 5210 5203 5199 5195 5192 5189 5187 5188 5192 5199 5210 5226 5245 5263 5280
5415 5401 5387 5374 5359 5347 5336 5325 5313 5299 5285 5273 5264 5257 5249 5242 5234 5230 5223 5217 5212 5206 5199 5198 5193 5188 5184 5179 5176 5173 5173 5176 5183 5195 5212 5231 5250 5268
5393 5379 5366 5355 5341 5327 5315 5305 5295 5283 5271 5261 5252 5244 5236 5229 5222 5217 5212 5207 5203 5197 5190 5187 5185 5181 5176 5171 5166 5163 5162 5165 5172 5184 5200 5220 5239 5256
5376 5362 5347 5334 5322 5307 5295 5285 5277 5269 5260 5251 5242 5234 5227 5220 5213 5207 5203 5199 5196 5192 5185 5180 5178 5174 5170 5165 5160 5157 5156 5158 5165 5177 5193 5212 5230 5247
5360 5347 5332 5316 5303 5290 5279 5270 5263 5257 5251 5244 5236 5228 5220 5214 5207 5200 5195 5192 5189 5186 5181 5175 5173 5169 5167 5163 5158 5154 5154 5156 5163 5174 5189 5206 5223 5238
5339 5327 5314 5300 5287 5276 5266 5259 5252 5247 5241 5235 5229 5222 5216 5209 5203 5197 5191 5186 5183 5180 5177 5173 5170 5167 5164 5162 5159 5156 5156 5158 5164 5174 5187 5201 5216 5231
5319 5308 5296 5285 5274 5265 5258 5251 5246 5240 5235 5229 5223 5217 5211 5205 5199 5193 5188 5183 5179 5176 5173 5171 5168 5166 5164 5163 5161 5160 5160 5162 5168 5176 5186 5198 5211 5225
5303 5292 5282 5273 5265 5258 5252 5246 5240 5235 5230 5225 5219 5213 5207 5201 5196 5191 5186 5182 5178 5175 5172 5170 5168 5167 5165 5165 5164 5164 5165 5168 5172 5179 5187 5197 5208 5220
5293 5283 5274 5266 5258 5252 5247 5241 5236 5232 5226 5221 5216 5211 5205 5200 5195 5190 5186 5182 5178 5175 5173 5170 5169 5168 5168 5168 5168 5169 5171 5174 5179 5185 5192 5200 5210 5220
5280 5273 5266 5260 5254 5249 5244 5239 5235 5230 5225 5220 5215 5210 5205 5201 5196 5191 5187 5183 5180 5177 5175 5173 5171 5171 5171 5172 5173 5175 5178 5182 5186 5192 5198 5206 5214 5223
5271 5265 5260 5255 5250 5246 5242 5238 5234 5230 5225 5220 5216 5211 5207 5203 5198 5194 5190 5186 5182 5179 5177 5176 5175 5175 5176 5177 5179 5181 5184 5189 5194 5199 5204 5211 5219 5227
5266 5261 5256 5252 5248 5245 5241 5238 5234 5230 5226 5221 5217 5213 5209 5205 5201 5197 5193 5189 5186 5183 5181 5179 5179 5179 5180 5182 5184 5187 5191 5195 5200 5205 5210 5217 5224 5230
5263 5259 5255 5251 5248 5244 5241 5238 5234 5230 5227 5223 5219 5215 5211 5208 5204 5200 5197 5193 5190 5187 5185 5184 5183 5183 5185 5187 5189 5192 5196 5201 5206 5211 5216 5222 5228 5234
5262 5258 5255 5251 5248 5245 5242 5238 5235 5231 5228 5224 5220 5217 5213 5209 5206 5203 5200 5197 5194 5191 5189 5188 5187 5188 5189 5191 5194 5197 5201 5205 5210 5215 5220 5226 5232 5238
5262 5259 5256 5253 5250 5246 5243 5240 5236 5232 5228 5225 5221 5217 5214 5210 5207 5204 5201 5199 5197 5195 5193 5192 5191 5191 5193 5195 5198 5201 5204 5209 5213 5217 5223 5228 5234 5241
5263 5260 5257 5254 5251 5248 5245 5241 5237 5233 5229 5225 5221 5217 5213 5210 5207 5204 5202 5200 5198 5197 5196 5195 5195 5195 5196 5198 5200 5203 5207 5211 5215 5220 5224 5229 5235 5240